contact:dominique.lefevre@mio.osupytheas.fr, maurice.libes@osupytheas.fr, didier.mallarino@osupytheas.fr
Project:EMSO http://www.emso-fr.org/EMSO-France
Depth: 2436.0 m
Title:EMSO Ligure Ouest : Data MII capteur MICROCAT
DateTime_Computer,Latitude,Longitude,Temperature,Conductivity,Pressure,DateTime_Instrument
DateTime_Computer,Latitude,Longitude,degC,S m-1,dbar,DateTime_Instrument
2020-08-08T00:02:59Z,42.805,6.029,13.3029,4.60011,2470.171,2020-8-08T02:03:47Z
2020-08-08T00:06:02Z,42.805,6.029,13.3027,4.60014,2470.194,2020-8-08T02:06:50Z
2020-08-08T00:09:05Z,42.805,6.029,13.3016,4.60014,2470.203,2020-8-08T02:09:54Z
2020-08-08T00:12:08Z,42.805,6.029,13.3000,4.60009,2470.203,2020-8-08T02:12:57Z
2020-08-08T00:15:11Z,42.805,6.029,13.3006,4.60011,2470.194,2020-8-08T02:16:00Z
2020-08-08T00:18:15Z,42.805,6.029,13.3015,4.60016,2470.227,2020-8-08T02:19:03Z
2020-08-08T00:21:18Z,42.805,6.029,13.3019,4.60024,2470.171,2020-8-08T02:22:07Z
2020-08-08T00:24:21Z,42.805,6.029,13.3019,4.60026,2470.194,2020-8-08T02:25:10Z
2020-08-08T00:27:24Z,42.805,6.029,13.3011,4.60029,2470.217,2020-8-08T02:28:13Z
2020-08-08T00:30:28Z,42.805,6.029,13.3028,4.60007,2470.194,2020-8-08T02:31:16Z
2020-08-08T00:33:31Z,42.805,6.029,13.3009,4.60008,2470.171,2020-8-08T02:34:19Z
2020-08-08T00:36:34Z,42.805,6.029,13.3011,4.60019,2470.18,2020-8-08T02:37:23Z
2020-08-08T00:39:37Z,42.805,6.029,13.3017,4.60026,2470.194,2020-8-08T02:40:26Z
2020-08-08T00:42:41Z,42.805,6.029,13.3016,4.60017,2470.217,2020-8-08T02:43:29Z
2020-08-08T00:45:44Z,42.805,6.029,13.3041,4.60006,2470.194,2020-8-08T02:46:32Z
2020-08-08T00:48:47Z,42.805,6.029,13.3031,4.60011,2470.194,2020-8-08T02:49:36Z
2020-08-08T00:51:50Z,42.805,6.029,13.3029,4.60016,2470.171,2020-8-08T02:52:39Z
2020-08-08T00:54:53Z,42.805,6.029,13.3028,4.60024,2470.171,2020-8-08T02:55:42Z
2020-08-08T00:57:57Z,42.805,6.029,13.3055,4.60021,2470.18,2020-8-08T02:58:45Z
2020-08-08T01:01:00Z,42.805,6.029,13.3041,4.60025,2470.203,2020-8-08T03:01:48Z
2020-08-08T01:04:03Z,42.805,6.029,13.3042,4.60019,2470.194,2020-8-08T03:04:52Z
2020-08-08T01:07:07Z,42.805,6.029,13.3032,4.60013,2470.194,2020-8-08T03:07:55Z
2020-08-08T01:10:10Z,42.805,6.029,13.3041,4.60036,2470.18,2020-8-08T03:10:58Z
2020-08-08T01:13:13Z,42.805,6.029,13.3036,4.59991,2470.156,2020-8-08T03:14:02Z
2020-08-08T01:16:16Z,42.805,6.029,13.3031,4.59993,2470.156,2020-8-08T03:17:05Z
2020-08-08T01:19:20Z,42.805,6.029,13.3020,4.60008,2470.171,2020-8-08T03:20:08Z
2020-08-08T01:22:23Z,42.805,6.029,13.3017,4.60005,2470.171,2020-8-08T03:23:11Z
2020-08-08T01:25:26Z,42.805,6.029,13.3017,4.60008,2470.124,2020-8-08T03:26:15Z
2020-08-08T01:28:29Z,42.805,6.029,13.3034,4.60014,2470.194,2020-8-08T03:29:18Z
2020-08-08T01:31:33Z,42.805,6.029,13.3027,4.60019,2470.171,2020-8-08T03:32:21Z
2020-08-08T01:34:36Z,42.805,6.029,13.2993,4.60038,2470.133,2020-8-08T03:35:24Z
2020-08-08T01:37:39Z,42.805,6.029,13.3006,4.60009,2470.147,2020-8-08T03:38:28Z
2020-08-08T01:40:42Z,42.805,6.029,13.3024,4.60036,2470.171,2020-8-08T03:41:31Z
2020-08-08T01:43:45Z,42.805,6.029,13.3007,4.60035,2470.133,2020-8-08T03:44:34Z
2020-08-08T01:46:49Z,42.805,6.029,13.3062,4.60016,2470.133,2020-8-08T03:47:37Z
2020-08-08T01:49:52Z,42.805,6.029,13.3074,4.59993,2470.133,2020-8-08T03:50:41Z
2020-08-08T01:52:56Z,42.805,6.029,13.3006,4.59994,2470.133,2020-8-08T03:53:44Z
2020-08-08T01:55:59Z,42.805,6.029,13.3015,4.60009,2470.147,2020-8-08T03:56:47Z
2020-08-08T01:59:02Z,42.805,6.029,13.3009,4.60024,2470.133,2020-8-08T03:59:51Z
2020-08-08T02:02:05Z,42.805,6.029,13.3014,4.60025,2470.124,2020-8-08T04:02:54Z
2020-08-08T02:05:08Z,42.805,6.029,13.3010,4.59998,2470.147,2020-8-08T04:05:57Z
2020-08-08T02:08:11Z,42.805,6.029,13.3024,4.60024,2470.147,2020-8-08T04:09:00Z
2020-08-08T02:11:15Z,42.805,6.029,13.3009,4.60017,2470.133,2020-8-08T04:12:03Z
2020-08-08T02:14:18Z,42.805,6.029,13.3005,4.60029,2470.124,2020-8-08T04:15:07Z
2020-08-08T02:17:21Z,42.805,6.029,13.2998,4.60028,2470.11,2020-8-08T04:18:10Z
2020-08-08T02:20:25Z,42.805,6.029,13.3023,4.60011,2470.147,2020-8-08T04:21:13Z
2020-08-08T02:23:28Z,42.805,6.029,13.3014,4.60028,2470.124,2020-8-08T04:24:17Z
2020-08-08T02:26:31Z,42.805,6.029,13.3012,4.59993,2470.133,2020-8-08T04:27:20Z
2020-08-08T02:29:35Z,42.805,6.029,13.3016,4.60008,2470.156,2020-8-08T04:30:23Z
2020-08-08T02:32:38Z,42.805,6.029,13.3032,4.60034,2470.11,2020-8-08T04:33:26Z
2020-08-08T02:35:41Z,42.805,6.029,13.3000,4.60032,2470.147,2020-8-08T04:36:30Z
2020-08-08T02:38:44Z,42.805,6.029,13.3016,4.60027,2470.133,2020-8-08T04:39:33Z
2020-08-08T02:41:47Z,42.805,6.029,13.3054,4.60041,2470.11,2020-8-08T04:42:36Z
2020-08-08T02:44:51Z,42.805,6.029,13.3050,4.60010,2470.11,2020-8-08T04:45:39Z
2020-08-08T02:47:54Z,42.805,6.029,13.3076,4.60019,2470.124,2020-8-08T04:48:43Z
2020-08-08T02:50:57Z,42.805,6.029,13.3041,4.60019,2470.147,2020-8-08T04:51:46Z
2020-08-08T02:54:00Z,42.805,6.029,13.3029,4.60053,2470.124,2020-8-08T04:54:49Z
2020-08-08T02:57:03Z,42.805,6.029,13.3034,4.60056,2470.124,2020-8-08T04:57:52Z
2020-08-08T03:00:07Z,42.805,6.029,13.3045,4.60045,2470.087,2020-8-08T05:00:55Z
2020-08-08T03:03:10Z,42.805,6.029,13.3061,4.60007,2470.124,2020-8-08T05:03:59Z
2020-08-08T03:06:13Z,42.805,6.029,13.3011,4.60019,2470.087,2020-8-08T05:07:02Z
2020-08-08T03:09:16Z,42.805,6.029,13.3017,4.60021,2470.1,2020-8-08T05:10:05Z
2020-08-08T03:12:20Z,42.805,6.029,13.3018,4.60016,2470.087,2020-8-08T05:13:08Z
2020-08-08T03:15:23Z,42.805,6.029,13.3041,4.60034,2470.1,2020-8-08T05:16:12Z
2020-08-08T03:18:26Z,42.805,6.029,13.3029,4.60062,2470.1,2020-8-08T05:19:15Z
2020-08-08T03:21:30Z,42.805,6.029,13.3016,4.60033,2470.1,2020-8-08T05:22:18Z
2020-08-08T03:24:33Z,42.805,6.029,13.3048,4.60029,2470.11,2020-8-08T05:25:21Z
2020-08-08T03:27:36Z,42.805,6.029,13.3020,4.60050,2470.077,2020-8-08T05:28:25Z
2020-08-08T03:30:39Z,42.805,6.029,13.3034,4.60053,2470.087,2020-8-08T05:31:28Z
2020-08-08T03:33:43Z,42.805,6.029,13.3005,4.60033,2470.063,2020-8-08T05:34:31Z
2020-08-08T03:36:46Z,42.805,6.029,13.3040,4.60058,2470.087,2020-8-08T05:37:35Z
2020-08-08T03:39:49Z,42.805,6.029,13.3039,4.60041,2470.087,2020-8-08T05:40:38Z
2020-08-08T03:42:52Z,42.805,6.029,13.3023,4.60027,2470.087,2020-8-08T05:43:41Z
2020-08-08T03:45:55Z,42.805,6.029,13.3040,4.60069,2470.063,2020-8-08T05:46:44Z
2020-08-08T03:48:59Z,42.805,6.029,13.3051,4.60048,2470.1,2020-8-08T05:49:48Z
2020-08-08T03:52:03Z,42.805,6.029,13.3018,4.60054,2470.1,2020-8-08T05:52:51Z
2020-08-08T03:55:06Z,42.805,6.029,13.3039,4.60057,2470.063,2020-8-08T05:55:54Z
2020-08-08T03:58:09Z,42.805,6.029,13.3020,4.60040,2470.1,2020-8-08T05:58:58Z
2020-08-08T04:01:12Z,42.805,6.029,13.2990,4.60044,2470.087,2020-8-08T06:02:01Z
2020-08-08T04:04:15Z,42.805,6.029,13.3013,4.60026,2470.063,2020-8-08T06:05:04Z
2020-08-08T04:07:19Z,42.805,6.029,13.2994,4.60057,2470.077,2020-8-08T06:08:07Z
2020-08-08T04:10:22Z,42.805,6.029,13.3011,4.60056,2470.077,2020-8-08T06:11:10Z
2020-08-08T04:13:25Z,42.805,6.029,13.3030,4.60029,2470.124,2020-8-08T06:14:14Z
2020-08-08T04:16:28Z,42.805,6.029,13.3030,4.60048,2470.087,2020-8-08T06:17:17Z
2020-08-08T04:19:32Z,42.805,6.029,13.3014,4.60039,2470.087,2020-8-08T06:20:20Z
2020-08-08T04:22:35Z,42.805,6.029,13.3010,4.60057,2470.077,2020-8-08T06:23:23Z
2020-08-08T04:25:38Z,42.805,6.029,13.3021,4.60064,2470.063,2020-8-08T06:26:27Z
2020-08-08T04:28:41Z,42.805,6.029,13.3035,4.60042,2470.1,2020-8-08T06:29:30Z
2020-08-08T04:31:44Z,42.805,6.029,13.3009,4.60039,2470.077,2020-8-08T06:32:33Z
2020-08-08T04:34:48Z,42.805,6.029,13.3023,4.60107,2470.1,2020-8-08T06:35:36Z
2020-08-08T04:37:51Z,42.805,6.029,13.3028,4.60029,2470.1,2020-8-08T06:38:39Z
2020-08-08T04:40:54Z,42.805,6.029,13.3031,4.60050,2470.04,2020-8-08T06:41:43Z
2020-08-08T04:43:57Z,42.805,6.029,13.3006,4.60049,2470.053,2020-8-08T06:44:46Z
2020-08-08T04:47:01Z,42.805,6.029,13.3029,4.60053,2470.1,2020-8-08T06:47:49Z
2020-08-08T04:50:04Z,42.805,6.029,13.3028,4.60041,2470.04,2020-8-08T06:50:52Z
2020-08-08T04:53:07Z,42.805,6.029,13.3049,4.60068,2470.1,2020-8-08T06:53:56Z
2020-08-08T04:56:10Z,42.805,6.029,13.3011,4.60045,2470.124,2020-8-08T06:56:59Z
2020-08-08T04:59:13Z,42.805,6.029,13.3024,4.60058,2470.1,2020-8-08T07:00:02Z
2020-08-08T05:02:17Z,42.805,6.029,13.3031,4.60054,2470.1,2020-8-08T07:03:05Z
2020-08-08T05:05:20Z,42.805,6.029,13.3044,4.60074,2470.077,2020-8-08T07:06:09Z
2020-08-08T05:08:23Z,42.805,6.029,13.3008,4.60050,2470.026,2020-8-08T07:09:12Z
2020-08-08T05:11:26Z,42.805,6.029,13.3008,4.60066,2470.087,2020-8-08T07:12:15Z
2020-08-08T05:14:30Z,42.805,6.029,13.3026,4.60060,2470.063,2020-8-08T07:15:18Z
2020-08-08T05:17:33Z,42.805,6.029,13.3039,4.60058,2470.087,2020-8-08T07:18:22Z
2020-08-08T05:20:36Z,42.805,6.029,13.3003,4.60070,2470.063,2020-8-08T07:21:25Z
2020-08-08T05:23:39Z,42.805,6.029,13.3025,4.60067,2470.1,2020-8-08T07:24:28Z
2020-08-08T05:26:43Z,42.805,6.029,13.3043,4.60078,2470.124,2020-8-08T07:27:31Z
2020-08-08T05:29:46Z,42.805,6.029,13.2994,4.60062,2470.1,2020-8-08T07:30:35Z
2020-08-08T05:32:49Z,42.805,6.029,13.3024,4.60060,2470.1,2020-8-08T07:33:38Z
2020-08-08T05:35:53Z,42.805,6.029,13.3036,4.60079,2470.1,2020-8-08T07:36:41Z
2020-08-08T05:38:56Z,42.805,6.029,13.3032,4.59994,2470.11,2020-8-08T07:39:44Z
2020-08-08T05:41:59Z,42.805,6.029,13.2992,4.60023,2470.087,2020-8-08T07:42:48Z
2020-08-08T05:45:02Z,42.805,6.029,13.3008,4.60040,2470.053,2020-8-08T07:45:51Z
2020-08-08T05:48:05Z,42.805,6.029,13.3033,4.60078,2470.087,2020-8-08T07:48:54Z
2020-08-08T05:51:09Z,42.805,6.029,13.3022,4.60003,2470.087,2020-8-08T07:51:57Z
2020-08-08T05:54:12Z,42.805,6.029,13.3041,4.60011,2470.1,2020-8-08T07:55:01Z
2020-08-08T05:57:15Z,42.805,6.029,13.3027,4.60026,2470.11,2020-8-08T07:58:04Z
2020-08-08T06:00:18Z,42.805,6.029,13.3014,4.60021,2470.124,2020-8-08T08:01:07Z
2020-08-08T06:03:22Z,42.805,6.029,13.3013,4.60004,2470.1,2020-8-08T08:04:10Z
2020-08-08T06:06:25Z,42.805,6.029,13.3019,4.60003,2470.087,2020-8-08T08:07:13Z
2020-08-08T06:09:28Z,42.805,6.029,13.3011,4.60021,2470.1,2020-8-08T08:10:17Z
2020-08-08T06:12:31Z,42.805,6.029,13.3009,4.60023,2470.063,2020-8-08T08:13:20Z
2020-08-08T06:15:34Z,42.805,6.029,13.3029,4.60029,2470.087,2020-8-08T08:16:23Z
2020-08-08T06:18:38Z,42.805,6.029,13.3018,4.60015,2470.124,2020-8-08T08:19:26Z
2020-08-08T06:21:41Z,42.805,6.029,13.3021,4.60027,2470.063,2020-8-08T08:22:30Z
2020-08-08T06:24:44Z,42.805,6.029,13.3007,4.60021,2470.11,2020-8-08T08:25:33Z
2020-08-08T06:27:48Z,42.805,6.029,13.2984,4.60019,2470.1,2020-8-08T08:28:36Z
2020-08-08T06:30:51Z,42.805,6.029,13.2996,4.60049,2470.1,2020-8-08T08:31:39Z
2020-08-08T06:33:54Z,42.805,6.029,13.3034,4.60024,2470.1,2020-8-08T08:34:43Z
2020-08-08T06:36:57Z,42.805,6.029,13.2992,4.60006,2470.1,2020-8-08T08:37:46Z
2020-08-08T06:40:00Z,42.805,6.029,13.3032,4.60041,2470.11,2020-8-08T08:40:49Z
2020-08-08T06:43:04Z,42.805,6.029,13.3001,4.60021,2470.11,2020-8-08T08:43:52Z
2020-08-08T06:46:07Z,42.805,6.029,13.3023,4.60045,2470.147,2020-8-08T08:46:55Z
2020-08-08T06:49:10Z,42.805,6.029,13.3038,4.60021,2470.133,2020-8-08T08:49:59Z
2020-08-08T06:52:13Z,42.805,6.029,13.3006,4.60006,2470.133,2020-8-08T08:53:02Z
2020-08-08T06:55:17Z,42.805,6.029,13.3019,4.60055,2470.156,2020-8-08T08:56:05Z
2020-08-08T06:58:20Z,42.805,6.029,13.3011,4.60029,2470.124,2020-8-08T08:59:08Z
2020-08-08T07:01:23Z,42.805,6.029,13.3014,4.60034,2470.147,2020-8-08T09:02:11Z
2020-08-08T07:04:26Z,42.805,6.029,13.3004,4.60011,2470.133,2020-8-08T09:05:15Z
2020-08-08T07:07:29Z,42.805,6.029,13.3007,4.60026,2470.124,2020-8-08T09:08:18Z
2020-08-08T07:10:33Z,42.805,6.029,13.2998,4.60001,2470.147,2020-8-08T09:11:21Z
2020-08-08T07:13:36Z,42.805,6.029,13.3018,4.60024,2470.147,2020-8-08T09:14:24Z
2020-08-08T07:16:39Z,42.805,6.029,13.3006,4.60027,2470.147,2020-8-08T09:17:28Z
2020-08-08T07:19:42Z,42.805,6.029,13.3006,4.60033,2470.11,2020-8-08T09:20:31Z
2020-08-08T07:22:45Z,42.805,6.029,13.3019,4.60006,2470.147,2020-8-08T09:23:34Z
2020-08-08T07:25:49Z,42.805,6.029,13.2993,4.60002,2470.133,2020-8-08T09:26:37Z
2020-08-08T07:28:52Z,42.805,6.029,13.3003,4.60016,2470.171,2020-8-08T09:29:40Z
2020-08-08T07:31:55Z,42.805,6.029,13.2987,4.60026,2470.147,2020-8-08T09:32:44Z
2020-08-08T07:34:58Z,42.805,6.029,13.3001,4.60026,2470.124,2020-8-08T09:35:47Z
2020-08-08T07:38:02Z,42.805,6.029,13.2984,4.60023,2470.133,2020-8-08T09:38:50Z
2020-08-08T07:41:05Z,42.805,6.029,13.2997,4.60021,2470.156,2020-8-08T09:41:54Z
2020-08-08T07:44:08Z,42.805,6.029,13.3002,4.60021,2470.156,2020-8-08T09:44:57Z
2020-08-08T07:47:12Z,42.805,6.029,13.2996,4.60019,2470.147,2020-8-08T09:48:00Z
2020-08-08T07:50:15Z,42.805,6.029,13.3013,4.60006,2470.156,2020-8-08T09:51:03Z
2020-08-08T07:53:18Z,42.805,6.029,13.2993,4.59995,2470.194,2020-8-08T09:54:07Z
2020-08-08T07:56:21Z,42.805,6.029,13.3006,4.60021,2470.133,2020-8-08T09:57:10Z
2020-08-08T07:59:25Z,42.805,6.029,13.3022,4.60004,2470.171,2020-8-08T10:00:13Z
2020-08-08T08:02:28Z,42.805,6.029,13.3020,4.60014,2470.156,2020-8-08T10:03:16Z
2020-08-08T08:05:31Z,42.805,6.029,13.3009,4.60016,2470.156,2020-8-08T10:06:20Z
2020-08-08T08:08:34Z,42.805,6.029,13.3026,4.60007,2470.203,2020-8-08T10:09:23Z
2020-08-08T08:11:37Z,42.805,6.029,13.2991,4.60019,2470.171,2020-8-08T10:12:26Z
2020-08-08T08:14:41Z,42.805,6.029,13.2985,4.60016,2470.194,2020-8-08T10:15:29Z
2020-08-08T08:17:44Z,42.805,6.029,13.2993,4.60011,2470.156,2020-8-08T10:18:33Z
2020-08-08T08:20:47Z,42.805,6.029,13.3009,4.59991,2470.133,2020-8-08T10:21:36Z
2020-08-08T08:23:50Z,42.805,6.029,13.2995,4.60022,2470.171,2020-8-08T10:24:39Z
2020-08-08T08:26:54Z,42.805,6.029,13.2982,4.60005,2470.156,2020-8-08T10:27:42Z
2020-08-08T08:29:57Z,42.805,6.029,13.2998,4.59992,2470.18,2020-8-08T10:30:46Z
2020-08-08T08:33:00Z,42.805,6.029,13.2995,4.60015,2470.147,2020-8-08T10:33:49Z
2020-08-08T08:36:03Z,42.805,6.029,13.2986,4.60011,2470.171,2020-8-08T10:36:52Z
2020-08-08T08:39:07Z,42.805,6.029,13.2985,4.59985,2470.171,2020-8-08T10:39:55Z
2020-08-08T08:42:10Z,42.805,6.029,13.2993,4.60011,2470.171,2020-8-08T10:42:58Z
2020-08-08T08:45:13Z,42.805,6.029,13.3005,4.60003,2470.194,2020-8-08T10:46:02Z
2020-08-08T08:48:16Z,42.805,6.029,13.2993,4.60000,2470.189,2020-8-08T10:49:05Z
2020-08-08T08:51:19Z,42.805,6.029,13.2993,4.59985,2470.194,2020-8-08T10:52:08Z
2020-08-08T08:54:23Z,42.805,6.029,13.2984,4.59999,2470.18,2020-8-08T10:55:11Z
2020-08-08T08:57:26Z,42.805,6.029,13.2991,4.60019,2470.18,2020-8-08T10:58:15Z
2020-08-08T09:00:29Z,42.805,6.029,13.3015,4.60007,2470.156,2020-8-08T11:01:18Z
2020-08-08T09:03:32Z,42.805,6.029,13.2981,4.60012,2470.171,2020-8-08T11:04:21Z
2020-08-08T09:06:36Z,42.805,6.029,13.3006,4.59997,2470.194,2020-8-08T11:07:24Z
2020-08-08T09:09:39Z,42.805,6.029,13.2995,4.59997,2470.18,2020-8-08T11:10:28Z
2020-08-08T09:12:42Z,42.805,6.029,13.2986,4.59989,2470.171,2020-8-08T11:13:31Z
2020-08-08T09:15:45Z,42.805,6.029,13.2986,4.59999,2470.171,2020-8-08T11:16:34Z
2020-08-08T09:18:49Z,42.805,6.029,13.2987,4.59994,2470.194,2020-8-08T11:19:37Z
2020-08-08T09:21:52Z,42.805,6.029,13.2997,4.59989,2470.156,2020-8-08T11:22:41Z
2020-08-08T09:24:55Z,42.805,6.029,13.3013,4.59999,2470.156,2020-8-08T11:25:44Z
2020-08-08T09:27:58Z,42.805,6.029,13.2993,4.60006,2470.156,2020-8-08T11:28:47Z
2020-08-08T09:31:02Z,42.805,6.029,13.3019,4.60003,2470.147,2020-8-08T11:31:50Z
2020-08-08T09:34:05Z,42.805,6.029,13.3012,4.60003,2470.18,2020-8-08T11:34:54Z
2020-08-08T09:37:08Z,42.805,6.029,13.3000,4.59993,2470.133,2020-8-08T11:37:57Z
2020-08-08T09:40:11Z,42.805,6.029,13.2999,4.60021,2470.18,2020-8-08T11:41:00Z
2020-08-08T09:43:15Z,42.805,6.029,13.2992,4.60008,2470.194,2020-8-08T11:44:03Z
2020-08-08T09:46:18Z,42.805,6.029,13.2985,4.60014,2470.171,2020-8-08T11:47:07Z
2020-08-08T09:49:21Z,42.805,6.029,13.3006,4.60019,2470.171,2020-8-08T11:50:10Z
2020-08-08T09:52:24Z,42.805,6.029,13.2991,4.60011,2470.194,2020-8-08T11:53:13Z
2020-08-08T09:55:28Z,42.805,6.029,13.2993,4.60001,2470.203,2020-8-08T11:56:16Z
2020-08-08T09:58:31Z,42.805,6.029,13.3009,4.60000,2470.171,2020-8-08T11:59:19Z
2020-08-08T10:01:34Z,42.805,6.029,13.3027,4.59998,2470.156,2020-8-08T12:02:23Z
2020-08-08T10:04:37Z,42.805,6.029,13.2993,4.60006,2470.217,2020-8-08T12:05:26Z
2020-08-08T10:07:41Z,42.805,6.029,13.2996,4.59992,2470.133,2020-8-08T12:08:29Z
2020-08-08T10:10:44Z,42.805,6.029,13.3004,4.60001,2470.217,2020-8-08T12:11:32Z
2020-08-08T10:13:47Z,42.805,6.029,13.3031,4.59996,2470.171,2020-8-08T12:14:36Z
2020-08-08T10:16:50Z,42.805,6.029,13.3010,4.60003,2470.171,2020-8-08T12:17:39Z
2020-08-08T10:19:53Z,42.805,6.029,13.3009,4.60004,2470.156,2020-8-08T12:20:42Z
2020-08-08T10:22:57Z,42.805,6.029,13.2996,4.60002,2470.194,2020-8-08T12:23:45Z
2020-08-08T10:26:00Z,42.805,6.029,13.3008,4.59992,2470.18,2020-8-08T12:26:49Z
2020-08-08T10:29:03Z,42.805,6.029,13.2998,4.60010,2470.194,2020-8-08T12:29:52Z
2020-08-08T10:32:07Z,42.805,6.029,13.2995,4.59994,2470.171,2020-8-08T12:32:55Z
2020-08-08T10:35:10Z,42.805,6.029,13.3011,4.59994,2470.156,2020-8-08T12:35:59Z
2020-08-08T10:38:13Z,42.805,6.029,13.2997,4.59997,2470.133,2020-8-08T12:39:02Z
2020-08-08T10:41:16Z,42.805,6.029,13.2999,4.60005,2470.194,2020-8-08T12:42:05Z
2020-08-08T10:44:20Z,42.805,6.029,13.2997,4.59998,2470.18,2020-8-08T12:45:08Z
2020-08-08T10:47:23Z,42.805,6.029,13.3000,4.59996,2470.171,2020-8-08T12:48:12Z
2020-08-08T10:50:26Z,42.805,6.029,13.2994,4.59999,2470.171,2020-8-08T12:51:15Z
2020-08-08T10:53:30Z,42.805,6.029,13.2998,4.59999,2470.156,2020-8-08T12:54:18Z
2020-08-08T10:56:33Z,42.805,6.029,13.2992,4.60012,2470.156,2020-8-08T12:57:21Z
2020-08-08T10:59:36Z,42.805,6.029,13.2993,4.59991,2470.156,2020-8-08T13:00:25Z
2020-08-08T11:02:39Z,42.805,6.029,13.2997,4.59995,2470.156,2020-8-08T13:03:28Z
2020-08-08T11:05:42Z,42.805,6.029,13.2994,4.60001,2470.171,2020-8-08T13:06:31Z
2020-08-08T11:08:46Z,42.805,6.029,13.2992,4.59988,2470.133,2020-8-08T13:09:34Z
2020-08-08T11:11:49Z,42.805,6.029,13.2989,4.59997,2470.156,2020-8-08T13:12:38Z
2020-08-08T11:14:52Z,42.805,6.029,13.2997,4.60000,2470.133,2020-8-08T13:15:41Z
2020-08-08T11:17:56Z,42.805,6.029,13.3006,4.59996,2470.156,2020-8-08T13:18:44Z
2020-08-08T11:20:59Z,42.805,6.029,13.3013,4.59994,2470.194,2020-8-08T13:21:48Z
2020-08-08T11:24:02Z,42.805,6.029,13.3005,4.59999,2470.171,2020-8-08T13:24:51Z
2020-08-08T11:27:05Z,42.805,6.029,13.3003,4.60003,2470.11,2020-8-08T13:27:54Z
2020-08-08T11:30:09Z,42.805,6.029,13.3005,4.60004,2470.124,2020-8-08T13:30:57Z
2020-08-08T11:33:12Z,42.805,6.029,13.3001,4.60001,2470.147,2020-8-08T13:34:01Z
2020-08-08T11:36:15Z,42.805,6.029,13.3001,4.59991,2470.147,2020-8-08T13:37:04Z
2020-08-08T11:39:18Z,42.805,6.029,13.3007,4.60002,2470.133,2020-8-08T13:40:07Z
2020-08-08T11:42:22Z,42.805,6.029,13.3000,4.60000,2470.124,2020-8-08T13:43:10Z
2020-08-08T11:45:25Z,42.805,6.029,13.2997,4.59996,2470.11,2020-8-08T13:46:14Z
2020-08-08T11:48:28Z,42.805,6.029,13.3000,4.60003,2470.11,2020-8-08T13:49:17Z
2020-08-08T11:51:31Z,42.805,6.029,13.2993,4.59996,2470.133,2020-8-08T13:52:20Z
2020-08-08T11:54:34Z,42.805,6.029,13.3000,4.60002,2470.171,2020-8-08T13:55:23Z
2020-08-08T11:57:38Z,42.805,6.029,13.3009,4.60005,2470.147,2020-8-08T13:58:26Z
2020-08-08T12:00:41Z,42.805,6.029,13.3002,4.59998,2470.147,2020-8-08T14:01:30Z
2020-08-08T12:03:44Z,42.805,6.029,13.3009,4.60004,2470.1,2020-8-08T14:04:33Z
2020-08-08T12:06:47Z,42.805,6.029,13.3014,4.60016,2470.147,2020-8-08T14:07:36Z
2020-08-08T12:09:51Z,42.805,6.029,13.3007,4.60003,2470.11,2020-8-08T14:10:40Z
2020-08-08T12:12:54Z,42.805,6.029,13.3009,4.60011,2470.124,2020-8-08T14:13:43Z
2020-08-08T12:15:57Z,42.805,6.029,13.3006,4.59999,2470.133,2020-8-08T14:16:46Z
2020-08-08T12:19:00Z,42.805,6.029,13.3020,4.60001,2470.147,2020-8-08T14:19:49Z
2020-08-08T12:22:04Z,42.805,6.029,13.3000,4.60006,2470.087,2020-8-08T14:22:52Z
2020-08-08T12:25:07Z,42.805,6.029,13.2993,4.60001,2470.124,2020-8-08T14:25:56Z
2020-08-08T12:28:10Z,42.805,6.029,13.3009,4.59999,2470.124,2020-8-08T14:28:59Z
2020-08-08T12:31:13Z,42.805,6.029,13.3001,4.60009,2470.11,2020-8-08T14:32:02Z
2020-08-08T12:34:17Z,42.805,6.029,13.3015,4.60014,2470.087,2020-8-08T14:35:05Z
2020-08-08T12:37:20Z,42.805,6.029,13.3010,4.60028,2470.087,2020-8-08T14:38:08Z
2020-08-08T12:40:23Z,42.805,6.029,13.3014,4.60007,2470.1,2020-8-08T14:41:12Z
2020-08-08T12:43:26Z,42.805,6.029,13.3005,4.60016,2470.124,2020-8-08T14:44:15Z
2020-08-08T12:46:29Z,42.805,6.029,13.3041,4.59999,2470.1,2020-8-08T14:47:18Z
2020-08-08T12:49:33Z,42.805,6.029,13.3013,4.59994,2470.087,2020-8-08T14:50:21Z
2020-08-08T12:52:36Z,42.805,6.029,13.3025,4.59998,2470.11,2020-8-08T14:53:24Z
2020-08-08T12:55:39Z,42.805,6.029,13.3014,4.60011,2470.087,2020-8-08T14:56:28Z
2020-08-08T12:58:42Z,42.805,6.029,13.3011,4.59994,2470.053,2020-8-08T14:59:31Z
2020-08-08T13:01:46Z,42.805,6.029,13.3013,4.60003,2470.087,2020-8-08T15:02:34Z
2020-08-08T13:04:49Z,42.805,6.029,13.3013,4.60006,2470.1,2020-8-08T15:05:38Z
2020-08-08T13:07:52Z,42.805,6.029,13.3005,4.59996,2470.077,2020-8-08T15:08:41Z
2020-08-08T13:10:56Z,42.805,6.029,13.3009,4.59993,2470.1,2020-8-08T15:11:44Z
2020-08-08T13:13:59Z,42.805,6.029,13.3000,4.60017,2470.087,2020-8-08T15:14:47Z
2020-08-08T13:17:02Z,42.805,6.029,13.3036,4.60009,2470.063,2020-8-08T15:17:51Z
2020-08-08T13:20:05Z,42.805,6.029,13.3006,4.60005,2470.053,2020-8-08T15:20:54Z
2020-08-08T13:23:08Z,42.805,6.029,13.3009,4.60002,2470.1,2020-8-08T15:23:57Z
2020-08-08T13:26:12Z,42.805,6.029,13.3003,4.60018,2470.087,2020-8-08T15:27:00Z
2020-08-08T13:29:15Z,42.805,6.029,13.3000,4.59996,2470.063,2020-8-08T15:30:04Z
2020-08-08T13:32:18Z,42.805,6.029,13.3011,4.59999,2470.077,2020-8-08T15:33:07Z
2020-08-08T13:35:21Z,42.805,6.029,13.3004,4.60009,2470.063,2020-8-08T15:36:10Z
2020-08-08T13:38:25Z,42.805,6.029,13.3011,4.60008,2470.087,2020-8-08T15:39:13Z
2020-08-08T13:41:28Z,42.805,6.029,13.3016,4.60019,2470.063,2020-8-08T15:42:16Z
2020-08-08T13:44:31Z,42.805,6.029,13.3014,4.59995,2470.1,2020-8-08T15:45:20Z
2020-08-08T13:47:35Z,42.805,6.029,13.3009,4.60007,2470.04,2020-8-08T15:48:23Z
2020-08-08T13:50:38Z,42.805,6.029,13.3016,4.60008,2470.077,2020-8-08T15:51:27Z
2020-08-08T13:53:41Z,42.805,6.029,13.3021,4.60005,2470.087,2020-8-08T15:54:30Z
2020-08-08T13:56:44Z,42.805,6.029,13.3019,4.59999,2470.1,2020-8-08T15:57:33Z
2020-08-08T13:59:48Z,42.805,6.029,13.3019,4.60002,2470.11,2020-8-08T16:00:36Z
2020-08-08T14:02:51Z,42.805,6.029,13.2995,4.59992,2470.063,2020-8-08T16:03:40Z
2020-08-08T14:05:54Z,42.805,6.029,13.3004,4.60003,2470.077,2020-8-08T16:06:43Z
2020-08-08T14:08:58Z,42.805,6.029,13.3000,4.60003,2470.04,2020-8-08T16:09:46Z
2020-08-08T14:12:01Z,42.805,6.029,13.3004,4.59994,2470.077,2020-8-08T16:12:50Z
2020-08-08T14:15:04Z,42.805,6.029,13.3005,4.60001,2470.04,2020-8-08T16:15:53Z
2020-08-08T14:18:07Z,42.805,6.029,13.3014,4.59999,2470.053,2020-8-08T16:18:56Z
2020-08-08T14:21:11Z,42.805,6.029,13.3006,4.59997,2470.04,2020-8-08T16:21:59Z
2020-08-08T14:24:14Z,42.805,6.029,13.3009,4.60014,2470.04,2020-8-08T16:25:02Z
2020-08-08T14:27:17Z,42.805,6.029,13.3004,4.60007,2470.063,2020-8-08T16:28:06Z
2020-08-08T14:30:20Z,42.805,6.029,13.3015,4.60006,2470.04,2020-8-08T16:31:09Z
2020-08-08T14:33:24Z,42.805,6.029,13.3000,4.60000,2470.053,2020-8-08T16:34:12Z
2020-08-08T14:36:27Z,42.805,6.029,13.3010,4.60012,2470.077,2020-8-08T16:37:15Z
2020-08-08T14:39:30Z,42.805,6.029,13.3001,4.60001,2470.063,2020-8-08T16:40:19Z
2020-08-08T14:42:33Z,42.805,6.029,13.3000,4.60016,2470.053,2020-8-08T16:43:22Z
2020-08-08T14:45:37Z,42.805,6.029,13.2998,4.59989,2470.04,2020-8-08T16:46:25Z
2020-08-08T14:48:40Z,42.805,6.029,13.3015,4.60002,2470.053,2020-8-08T16:49:29Z
2020-08-08T14:51:43Z,42.805,6.029,13.3020,4.60005,2470.03,2020-8-08T16:52:32Z
2020-08-08T14:54:46Z,42.805,6.029,13.3004,4.60010,2470.04,2020-8-08T16:55:35Z
2020-08-08T14:57:50Z,42.805,6.029,13.3026,4.59999,2470.063,2020-8-08T16:58:38Z
2020-08-08T15:00:53Z,42.805,6.029,13.3010,4.59999,2470.087,2020-8-08T17:01:41Z
2020-08-08T15:03:56Z,42.805,6.029,13.3000,4.60008,2470.077,2020-8-08T17:04:45Z
2020-08-08T15:06:59Z,42.805,6.029,13.3011,4.60008,2470.077,2020-8-08T17:07:48Z
2020-08-08T15:10:02Z,42.805,6.029,13.3009,4.60011,2470.04,2020-8-08T17:10:51Z
2020-08-08T15:13:06Z,42.805,6.029,13.2994,4.59994,2470.063,2020-8-08T17:13:54Z
2020-08-08T15:16:09Z,42.805,6.029,13.3005,4.59989,2470.04,2020-8-08T17:16:58Z